Jefferson, NC

9:39 PM EDT on April 30, 2017 (GMT -0400)
Ashe County

Weather History for KGEV - December, 2005

Change the Weather History Date:

Friday, December 30, 2005

  Actual Average Record
Temperature  
Mean Temperature 42 °F -  
Max Temperature 51 °F 44 °F 66 °F (1990)
Min Temperature 32 °F 24 °F 2 °F (1983)
Degree Days  
Heating Degree Days 24    
Moisture  
Dew Point 32 °F    
Average Humidity 77    
Maximum Humidity 93    
Minimum Humidity 44    
Precipitation  
Precipitation 0.00 in - - ()
Sea Level Pressure  
Sea Level Pressure 29.82 in    
Wind  
Wind Speed 7 mph (WNW)    
Max Wind Speed 17 mph    
Max Gust Speed 25 mph    
Visibility 10 miles    
Events      
Averages and records for this station are not official NWS values.
T = Trace of Precipitation, MM = Missing Value Source: NWS Daily Summary

Daily Weather History Graph

Daily Weather History Graph

Search for Another Location

Airport or City:

Trip Planner

Search our weather history database for the weather conditions in past years. The results will help you decide how hot, cold, wet, or windy it might be!

Date:

Astronomy

Dec. 30, 2005 Rise Set
Actual Time 7:37 AM EST 5:19 PM EST
Civil Twilight 7:08 AM EST 5:48 PM EST
Nautical Twilight 6:36 AM EST 6:20 PM EST
Astronomical Twilight 6:04 AM EST 6:52 PM EST
Moon 7:26 AM EST (12/30) 4:41 PM EST (12/30)
Length of Visible Light 10h 40m
Length of Day
9h 42m
Waning Crescent, 0% of the Moon is Illuminated
Dec 30
Waning Crescent
Dec 30
New
Jan 6
First Quarter
Jan 14
Full
Jan 22
Last Quarter

Hourly Weather History & Observations

Time (EST) Temp. Windchill Dew Point Humidity Pressure Visibility Wind Dir Wind Speed Gust Speed Precip Events Conditions
12:01 AM 33.8 °F 27.7 °F 30.2 °F 87% 29.73 in 10.0 mi NW 6.9 mph - N/A   Overcast
12:21 AM 32.0 °F 20.8 °F 30.2 °F 93% 29.74 in 10.0 mi WNW 17.3 mph 23.0 mph N/A   Overcast
12:43 AM 33.8 °F 27.0 °F 30.2 °F 87% 29.75 in 10.0 mi NW 8.1 mph 21.9 mph N/A   Overcast
1:01 AM 32.0 °F 24.2 °F 30.2 °F 93% 29.76 in 10.0 mi NW 9.2 mph 18.4 mph N/A   Overcast
1:21 AM 32.0 °F 22.5 °F 30.2 °F 93% 29.75 in 10.0 mi NW 12.7 mph 21.9 mph N/A   Overcast
2:01 AM 33.8 °F 27.7 °F 30.2 °F 87% 29.76 in 10.0 mi NW 6.9 mph 25.3 mph N/A   Overcast
2:21 AM 33.8 °F 25.3 °F 30.2 °F 87% 29.77 in 10.0 mi NNW 11.5 mph 17.3 mph N/A   Overcast
3:01 AM 33.8 °F 27.7 °F 30.2 °F 87% 29.78 in 10.0 mi WNW 6.9 mph 19.6 mph N/A   Overcast
3:23 AM 33.8 °F 28.6 °F 30.2 °F 87% 29.79 in 10.0 mi NW 5.8 mph - N/A   Overcast
4:01 AM 33.8 °F 28.6 °F 30.2 °F 87% 29.79 in 10.0 mi WNW 5.8 mph - N/A   Mostly Cloudy
4:21 AM 33.8 °F 26.4 °F 30.2 °F 87% 29.77 in 10.0 mi WNW 9.2 mph 23.0 mph N/A   Mostly Cloudy
5:01 AM 33.8 °F 25.3 °F 30.2 °F 87% 29.79 in 10.0 mi West 11.5 mph 18.4 mph N/A   Overcast
5:23 AM 32.0 °F 24.2 °F 30.2 °F 93% 29.81 in 10.0 mi West 9.2 mph - N/A   Overcast
5:41 AM 33.8 °F 27.0 °F 30.2 °F 87% 29.82 in 10.0 mi West 8.1 mph 17.3 mph N/A   Mostly Cloudy
6:01 AM 32.0 °F 24.8 °F 30.2 °F 93% 29.82 in 10.0 mi West 8.1 mph - N/A   Mostly Cloudy
6:21 AM 32.0 °F 23.6 °F 30.2 °F 93% 29.83 in 10.0 mi WNW 10.4 mph - N/A   Scattered Clouds
7:01 AM 32.0 °F 23.6 °F 30.2 °F 93% 29.84 in 10.0 mi WNW 10.4 mph - N/A   Clear
7:21 AM 32.0 °F 27.5 °F 30.2 °F 93% 29.85 in 10.0 mi NNW 4.6 mph - N/A   Scattered Clouds
7:41 AM 32.0 °F 27.5 °F 30.2 °F 93% 29.85 in 10.0 mi NNW 4.6 mph - N/A   Scattered Clouds
8:03 AM 32.0 °F 25.6 °F 30.2 °F 93% 29.85 in 10.0 mi NW 6.9 mph - N/A   Mostly Cloudy
8:21 AM 32.0 °F 27.5 °F 30.2 °F 93% 29.86 in 10.0 mi NW 4.6 mph - N/A   Scattered Clouds
8:41 AM 33.8 °F 30.8 °F 30.2 °F 87% 29.86 in 10.0 mi NNW 3.5 mph - N/A   Scattered Clouds
9:01 AM 33.8 °F 29.6 °F 30.2 °F 87% 29.86 in 10.0 mi North 4.6 mph - N/A   Scattered Clouds
9:21 AM 33.8 °F 29.6 °F 30.2 °F 87% 29.86 in 10.0 mi North 4.6 mph - N/A   Clear
9:40 AM 33.8 °F 27.0 °F 30.2 °F 87% 29.86 in 10.0 mi NNW 8.1 mph - N/A   Clear
9:59 AM 37.4 °F 32.8 °F 33.8 °F 87% 29.86 in 10.0 mi NNW 5.8 mph - N/A   Clear
10:19 AM 37.4 °F 34.9 °F 32.0 °F 81% 29.87 in 10.0 mi NNE 3.5 mph - N/A   Clear
11:00 AM 41.0 °F 39.0 °F 33.8 °F 76% 29.87 in 10.0 mi East 3.5 mph - N/A   Clear
11:19 AM 42.8 °F - 33.8 °F 70% 29.87 in 10.0 mi Calm Calm - N/A   Clear
11:41 AM 42.8 °F 41.1 °F 33.8 °F 70% 29.86 in 10.0 mi ESE 3.5 mph - N/A   Clear
11:59 AM 44.6 °F - 33.8 °F 66% 29.85 in 10.0 mi Calm Calm - N/A   Clear
12:20 PM 46.4 °F - 35.6 °F 66% 29.84 in 10.0 mi Calm Calm - N/A   Clear
12:39 PM 50.0 °F - 35.6 °F 58% 29.84 in 10.0 mi SSE 3.5 mph - N/A   Clear
12:59 PM 51.8 °F - 35.6 °F 54% 29.83 in 10.0 mi Calm Calm - N/A   Clear
1:19 PM 51.8 °F - 35.6 °F 54% 29.82 in 10.0 mi ESE 3.5 mph - N/A   Clear
2:00 PM 51.8 °F - 35.6 °F 54% 29.82 in 10.0 mi ESE 3.5 mph - N/A   Clear
2:20 PM 51.8 °F - 35.6 °F 54% 29.82 in 10.0 mi Calm Calm - N/A   Clear
2:39 PM 51.8 °F - 32.0 °F 47% 29.81 in 10.0 mi West 9.2 mph - N/A   Clear
2:59 PM 51.8 °F - 32.0 °F 47% 29.82 in 10.0 mi West 11.5 mph - N/A   Clear
3:19 PM 51.8 °F - 30.2 °F 44% 29.82 in 10.0 mi West 8.1 mph - N/A   Clear
3:59 PM 51.8 °F - 30.2 °F 44% 29.82 in 10.0 mi Calm Calm - N/A   Clear
4:19 PM 50.0 °F - 35.6 °F 58% 29.82 in 10.0 mi SSE 5.8 mph - N/A   Clear
4:39 PM 48.2 °F - 35.6 °F 62% 29.82 in 10.0 mi SE 5.8 mph - N/A   Clear
4:59 PM 46.4 °F 45.2 °F 33.8 °F 62% 29.82 in 10.0 mi SSE 3.5 mph - N/A   Clear
5:19 PM 44.6 °F 42.2 °F 33.8 °F 66% 29.82 in 10.0 mi SSE 4.6 mph - N/A   Clear
5:39 PM 44.6 °F 43.1 °F 33.8 °F 66% 29.83 in 10.0 mi SSE 3.5 mph - N/A   Clear
5:59 PM 42.8 °F 40.1 °F 33.8 °F 70% 29.82 in 10.0 mi SSE 4.6 mph - N/A   Clear
6:19 PM 42.8 °F - 33.8 °F 70% 29.83 in 10.0 mi Calm Calm - N/A   Clear
6:39 PM 42.8 °F - 33.8 °F 70% 29.83 in 10.0 mi Calm Calm - N/A   Clear
6:59 PM 42.8 °F 41.1 °F 33.8 °F 70% 29.84 in 10.0 mi South 3.5 mph - N/A   Clear
7:19 PM 41.0 °F 39.0 °F 33.8 °F 76% 29.83 in 10.0 mi South 3.5 mph - N/A   Clear
8:01 PM 39.2 °F - 33.8 °F 81% 29.82 in 10.0 mi Calm Calm - N/A   Scattered Clouds
8:19 PM 39.2 °F - 33.8 °F 81% 29.82 in 10.0 mi Calm Calm - N/A   Scattered Clouds
8:59 PM 39.2 °F 35.9 °F 35.6 °F 87% 29.82 in 10.0 mi SSE 4.6 mph - N/A   Scattered Clouds
9:19 PM 39.2 °F 37.0 °F 35.6 °F 87% 29.82 in 10.0 mi South 3.5 mph - N/A   Mostly Cloudy
9:39 PM 39.2 °F 35.9 °F 33.8 °F 81% 29.82 in 10.0 mi South 4.6 mph - N/A   Overcast
9:59 PM 41.0 °F 39.0 °F 35.6 °F 81% 29.82 in 10.0 mi South 3.5 mph - N/A   Mostly Cloudy
10:19 PM 39.2 °F - 33.8 °F 81% 29.82 in 10.0 mi Calm Calm - N/A   Scattered Clouds
10:39 PM 39.2 °F - 33.8 °F 81% 29.81 in 10.0 mi Calm Calm - N/A   Clear
10:59 PM 39.2 °F 37.0 °F 33.8 °F 81% 29.81 in 10.0 mi SE 3.5 mph - N/A   Clear
11:19 PM 39.2 °F - 33.8 °F 81% 29.81 in 10.0 mi Calm Calm - N/A   Clear
11:39 PM 39.2 °F - 33.8 °F 81% 29.81 in 10.0 mi Calm Calm - N/A   Clear
11:59 PM 39.2 °F - 35.6 °F 87% 29.80 in 10.0 mi Calm Calm - N/A   Scattered Clouds